[[{"header":{"parameterUnit":"m.s-1","parameterCategory":1,"la1":30.2991,"la2":30.254,"lo1":-89.0895,"lo2":-89.0444,"dy":0.0017,"dx":0.0017,"nx":28,"ny":28,"refTime":"2024-08-10T09:00:00:Z","depth":0,"parameterNumber":2,"parameterNumberName":"U-component_of_WINDS"},"data":[0,0,0,0,0,0,0,0,0,0,0,0,0,0,0,0,0,0,0,0,0,0,0,0,0,0,0,0,0,0,0,0,0,0,0,0,0,0,0,0,0,0,0,0,0,0,0,0,0,0,0,0,0,0,0,0,0,0,-1.0728,-1.0728,0,-1.0732,-1.0732,-1.0732,-1.0619,-1.0616,-1.0613,-1.061,-1.0618,-1.0621,-1.0624,0,0,0,0,0,0,0,0,0,0,0,0,0,-1.0625,-1.0627,-1.0728,-1.0728,-1.0728,-1.0732,-1.0732,-1.0732,-1.0619,-1.0616,-1.0612,-1.0608,-1.0617,-1.0621,-1.0624,0,0,0,0,0,0,0,0,0,0,0,0,0,-1.0653,-1.0628,-1.0728,-1.0672,-1.0667,-1.0732,-1.0732,-1.0732,-1.062,-1.0615,-1.0611,-1.0607,-1.0616,-1.062,-1.0625,-1.0745,0,0,-1.0639,-1.0641,0,0,0,0,0,0,0,0,-1.0652,-1.0657,-1.068,-1.0676,-1.0671,-1.067,-1.0699,-1.0737,-1.0621,-1.0638,-1.061,-1.0604,-1.0639,-1.0642,-1.0653,-1.0745,-1.0746,-1.0639,-1.0642,-1.0644,-1.0645,0,0,0,0,0,0,0,-1.065,-1.0657,-1.073,-1.0681,-1.0675,-1.0648,-1.0647,-1.0705,-1.0665,-1.0636,-1.0628,-1.063,-1.0636,-1.0649,-1.0652,-1.0746,-1.0639,-1.0643,-1.0646,-1.0648,-1.0938,-1.0942,0,0,0,0,0,0,-1.0655,-1.0656,-1.073,-1.073,-1.065,-1.0653,-1.0652,-1.0675,-1.0663,-1.0657,-1.0634,-1.0624,-1.0643,-1.0647,-1.0652,-1.0793,-1.0644,-1.0648,-1.0651,-1.0933,-1.0939,-1.0944,0,0,0,0,0,0,-1.0653,-1.0663,-1.0729,-1.069,-1.0697,-1.066,-1.0686,-1.0677,-1.069,-1.0661,-1.0654,-1.0654,-1.0639,-1.0645,-1.0723,-1.0792,-1.065,-1.0655,-1.0927,-1.0935,-1.0941,-1.1076,0,0,0,0,0,0,-1.0651,-1.0663,-1.0708,-1.0692,-1.0699,-1.08,-1.0691,-1.0681,-1.0698,-1.0686,-1.0679,-1.0673,-1.0636,-1.0716,-1.0727,-1.0796,-1.0658,-1.0921,-1.093,-1.0939,-1.1066,-1.1087,-1.1106,0,0,0,0,0,-1.0648,-1.0746,-1.0711,-1.072,-1.0754,-1.0804,-1.0808,-1.0763,-1.0704,-1.0749,-1.0731,-1.0673,-1.0782,-1.0725,-1.0736,-1.0807,-1.0916,-1.0928,-1.0938,-1.1056,-1.1083,-1.1105,0,0,0,0,0,0,-1.0773,-1.0743,-1.0704,-1.08,-1.0805,-1.0785,-1.0841,-1.0792,-1.0815,-1.0803,-1.0747,-1.0746,-1.0833,-1.0827,-1.0765,-1.0923,-1.0839,-1.0853,-1.0925,-1.095,-1.0969,-1.0971,-1.0662,0,0,0,0,0,-1.0811,-1.0853,-1.0825,-1.0913,-1.0917,-1.0879,-1.0898,-1.0862,-1.0866,-1.0868,-1.0855,-1.0862,-1.0898,-1.0923,-1.0953,-1.1062,-1.106,-1.1117,-1.1137,-1.1154,-1.1168,-1.1226,-1.1252,-1.0981,-1.0981,-1.098,0,0,-1.0892,-1.0881,-1.0911,-1.0937,-1.0937,-1.0983,-1.0881,-1.0934,-1.0968,-1.0877,-1.0949,-1.094,-1.0943,-1.1037,-1.1078,-1.1035,-1.1241,-1.1168,-1.1181,-1.1186,-1.124,-1.1266,-1.1289,-1.0988,-1.0987,-1.0986,0,0,-1.1063,-1.1058,-1.1131,-1.1132,-1.1132,-1.1106,-1.1123,-1.111,-1.11,-1.1171,-1.1104,-1.1143,-1.1205,-1.1211,-1.1222,-1.1393,-1.1342,-1.1404,-1.1512,-1.157,-1.1591,-1.161,-1.1674,-1.1697,-1.1417,-1.1418,-1.1418,0,-1.1164,-1.1229,-1.1175,-1.1232,-1.1246,-1.1163,-1.1238,-1.1242,-1.1253,-1.1266,-1.1216,-1.1292,-1.1289,-1.1384,-1.1426,-1.1436,-1.1456,-1.1407,-1.1592,-1.161,-1.1627,-1.1687,-1.1711,-1.1426,-1.1425,-1.1424,-1.1423,0,-1.1354,-1.14,-1.1459,-1.1471,-1.1491,-1.1557,-1.1514,-1.1541,-1.1502,-1.1481,-1.1555,-1.1547,-1.1576,-1.1595,-1.1558,-1.1685,-1.1658,-1.1601,-1.1516,-1.1662,-1.1717,-1.174,-1.1437,-1.1434,-1.1432,-1.143,0,0,-1.1608,-1.1587,-1.161,-1.1615,-1.1608,-1.1643,-1.1704,-1.1731,-1.1756,-1.1766,-1.1818,-1.1871,-1.1818,-1.183,-1.1793,-1.1844,-1.1982,-1.178,-1.178,-1.1821,-1.2124,-1.217,-1.2197,-1.1947,-1.1951,-1.1954,-1.2125,0,-1.1777,-1.188,-1.1833,-1.1942,-1.1985,-1.1906,-1.1959,-1.1962,-1.1943,-1.1977,-1.1956,-1.1996,-1.1921,-1.1929,-1.1975,-1.1956,-1.2043,-1.1942,-1.1997,-1.2,-1.2003,-1.2226,-1.2275,-1.2436,-1.2146,-1.2149,-1.2152,0,-1.1988,-1.2005,-1.2119,-1.2105,-1.2121,-1.217,-1.219,-1.2223,-1.2224,-1.2207,-1.222,-1.2171,-1.2231,-1.2143,-1.2227,-1.216,-1.2178,-1.2172,-1.2177,-1.2184,-1.2088,-1.2242,-1.2486,-1.2513,-1.2185,-1.2183,-1.218,0,-1.2166,-1.2217,-1.2292,-1.2298,-1.2282,-1.2319,-1.2314,-1.231,-1.2329,-1.2346,-1.2358,-1.2383,-1.2398,-1.2418,-1.2377,-1.2317,-1.2468,-1.2376,-1.2457,-1.2459,-1.2496,-1.2495,-1.2751,-1.2502,-1.2502,-1.2501,-1.2501,0,-1.2361,-1.2435,-1.2372,-1.2419,-1.2499,-1.2442,-1.2524,-1.251,-1.2507,-1.255,-1.2482,-1.2525,-1.2466,-1.2503,-1.2471,-1.2547,-1.2553,-1.2542,-1.2534,-1.2551,-1.2553,-1.2566,-1.2555,-1.2508,-1.2506,-1.2505,-1.2504,0,-1.2576,-1.2536,-1.2613,-1.259,-1.2586,-1.2647,-1.2628,-1.2671,-1.2646,-1.2702,-1.2712,-1.2673,-1.2713,-1.2673,-1.2711,-1.2689,-1.2791,-1.2764,-1.2792,-1.2785,-1.287,-1.2865,-1.3147,-1.3182,-1.2907,-1.291,-1.2912,0,-1.2705,-1.276,-1.2743,-1.2766,-1.2765,-1.2804,-1.2822,-1.2768,-1.279,-1.2794,-1.2838,-1.2871,-1.2896,-1.2963,-1.2939,-1.2968,-1.2944,-1.304,-1.2948,-1.2963,-1.2949,-1.2948,-1.2954,-1.3061,-1.3064,-1.3067,-1.3069,0,-1.294,-1.2917,-1.2946,-1.2968,-1.2992,-1.3007,-1.3016,-1.304,-1.2983,-1.3012,-1.3051,-1.307,-1.3107,-1.3142,-1.3163,-1.3159,-1.3107,-1.3097,-1.3118,-1.3139,-1.3154,-1.315,-1.2847,-1.3092,-1.309,-1.3088,-1.3087,-1.3086,-1.3119,-1.3164,-1.3159,-1.3193,-1.3194,-1.3204,-1.3244,-1.3223,-1.3254,-1.328,-1.3245,-1.3295,-1.3293,-1.3315,-1.3317,-1.3356,-1.3315,-1.3345,-1.3353,-1.3362,-1.3377,-1.3144,-1.3359,-1.3358,-1.3357,-1.3357,-1.3356,0,-1.3353,-1.3345,-1.3377,-1.3392,-1.342,-1.3363,-1.3371,-1.3398,-1.3442,-1.3444,-1.3469,-1.3514,-1.3547,-1.3525,-1.3554,-1.3589,-1.3565,-1.3599,-1.3598,-1.3598,-1.341,-1.339,-1.3617,-1.3617,-1.3617,-1.3617,-1.3617,-1.3617,-1.3479,-1.3553,-1.353,-1.3604,-1.3595,-1.3642,-1.3652,-1.3661,-1.3663,-1.3716,-1.3743,-1.3727,-1.372,-1.3747,-1.3776,-1.3768,-1.3783,-1.3826,-1.3811,-1.3637,-1.3611,-1.3587,-1.3568,-1.3829,-1.3829,-1.3996,-1.3998,-1.3999]},{"header":{"parameterUnit":"m.s-1","parameterCategory":1,"la1":30.2991,"la2":30.254,"lo1":-89.0895,"lo2":-89.0444,"dy":0.0017,"dx":0.0017,"nx":28,"ny":28,"refTime":"2024-08-10T09:00:00:Z","depth":0,"parameterNumber":3,"parameterNumberName":"V-component_of_WINDS"},"data":[0,0,0,0,0,0,0,0,0,0,0,0,0,0,0,0,0,0,0,0,0,0,0,0,0,0,0,0,0,0,0,0,0,0,0,0,0,0,0,0,0,0,0,0,0,0,0,0,0,0,0,0,0,0,0,0,0,0,-3.6991,-3.6991,0,-3.6993,-3.6993,-3.6993,-3.6922,-3.692,-3.6918,-3.6916,-3.6921,-3.6923,-3.6925,0,0,0,0,0,0,0,0,0,0,0,0,0,-3.6926,-3.6928,-3.6991,-3.6991,-3.6991,-3.6993,-3.6993,-3.6993,-3.6922,-3.692,-3.6918,-3.6915,-3.692,-3.6923,-3.6925,0,0,0,0,0,0,0,0,0,0,0,0,0,-3.6944,-3.6928,-3.6991,-3.6956,-3.6953,-3.6993,-3.6993,-3.6993,-3.6923,-3.692,-3.6917,-3.6914,-3.692,-3.6922,-3.6925,-3.7001,0,0,-3.6934,-3.6935,0,0,0,0,0,0,0,0,-3.6943,-3.6947,-3.6961,-3.6958,-3.6955,-3.6954,-3.6972,-3.6996,-3.6923,-3.6934,-3.6916,-3.6913,-3.6935,-3.6936,-3.6943,-3.7001,-3.7001,-3.6934,-3.6936,-3.6937,-3.6938,0,0,0,0,0,0,0,-3.6942,-3.6946,-3.6992,-3.6961,-3.6957,-3.694,-3.694,-3.6976,-3.6951,-3.6933,-3.6928,-3.6929,-3.6932,-3.694,-3.6943,-3.7001,-3.6934,-3.6937,-3.6939,-3.694,-3.712,-3.7123,0,0,0,0,0,0,-3.6946,-3.6946,-3.6992,-3.6992,-3.6942,-3.6944,-3.6943,-3.6957,-3.695,-3.6946,-3.6931,-3.6926,-3.6937,-3.6939,-3.6942,-3.7029,-3.6937,-3.694,-3.6942,-3.7117,-3.7121,-3.7124,0,0,0,0,0,0,-3.6944,-3.695,-3.6992,-3.6967,-3.6971,-3.6948,-3.6965,-3.6959,-3.6967,-3.6949,-3.6944,-3.6944,-3.6935,-3.6938,-3.6986,-3.7028,-3.6941,-3.6944,-3.7113,-3.7118,-3.7122,-3.7204,0,0,0,0,0,0,-3.6943,-3.695,-3.6978,-3.6969,-3.6973,-3.7035,-3.6967,-3.6961,-3.6972,-3.6964,-3.6959,-3.6956,-3.6933,-3.6982,-3.6989,-3.7031,-3.6946,-3.711,-3.7116,-3.7121,-3.7197,-3.7211,-3.7222,0,0,0,0,0,-3.6941,-3.7002,-3.698,-3.6986,-3.7007,-3.7038,-3.704,-3.7012,-3.6975,-3.7003,-3.6992,-3.6956,-3.7023,-3.6988,-3.6995,-3.7038,-3.7107,-3.7114,-3.7121,-3.7192,-3.7208,-3.7222,0,0,0,0,0,0,-3.7018,-3.7,-3.6976,-3.7035,-3.7038,-3.7026,-3.706,-3.703,-3.7044,-3.7037,-3.7002,-3.7001,-3.7055,-3.7051,-3.7013,-3.711,-3.7058,-3.7067,-3.711,-3.7125,-3.7138,-3.7137,-3.6949,0,0,0,0,0,-3.7042,-3.7067,-3.7051,-3.7105,-3.7108,-3.7084,-3.7096,-3.7074,-3.7076,-3.7077,-3.7069,-3.7073,-3.7095,-3.711,-3.7129,-3.7197,-3.7194,-3.723,-3.7242,-3.7253,-3.726,-3.7295,-3.731,-3.7147,-3.7147,-3.7147,0,0,-3.7092,-3.7085,-3.7103,-3.712,-3.712,-3.7147,-3.7085,-3.7118,-3.7138,-3.7082,-3.7126,-3.7121,-3.7123,-3.7181,-3.7206,-3.718,-3.7305,-3.7261,-3.727,-3.7272,-3.7303,-3.7319,-3.7333,-3.7152,-3.7151,-3.715,0,0,-3.7196,-3.7194,-3.7238,-3.7239,-3.7239,-3.7223,-3.7234,-3.7225,-3.7219,-3.7263,-3.7222,-3.7246,-3.7284,-3.7287,-3.7294,-3.74,-3.7367,-3.7407,-3.7471,-3.7506,-3.7518,-3.753,-3.7566,-3.758,-3.7415,-3.7415,-3.7415,0,-3.7257,-3.7297,-3.7265,-3.7299,-3.7307,-3.7258,-3.7302,-3.7305,-3.7313,-3.732,-3.729,-3.7337,-3.7335,-3.7393,-3.7418,-3.7426,-3.7437,-3.7407,-3.7519,-3.753,-3.754,-3.7575,-3.7589,-3.742,-3.7419,-3.7419,-3.7418,0,-3.7372,-3.74,-3.7436,-3.7443,-3.7455,-3.7495,-3.7469,-3.7486,-3.7463,-3.745,-3.7495,-3.7492,-3.7509,-3.7521,-3.7499,-3.7575,-3.7559,-3.7525,-3.7472,-3.7561,-3.7593,-3.7606,-3.7427,-3.7425,-3.7424,-3.7422,0,0,-3.7524,-3.7512,-3.7526,-3.7528,-3.7525,-3.7546,-3.7584,-3.7599,-3.7614,-3.7621,-3.7652,-3.7685,-3.7654,-3.7661,-3.764,-3.767,-3.7753,-3.7632,-3.7631,-3.7654,-3.7836,-3.786,-3.7876,-3.7732,-3.7734,-3.7736,-3.7835,0,-3.7624,-3.7686,-3.7658,-3.7724,-3.7749,-3.7702,-3.7735,-3.7737,-3.7726,-3.7746,-3.7735,-3.7759,-3.7716,-3.772,-3.7748,-3.7737,-3.7788,-3.7729,-3.7759,-3.7761,-3.7759,-3.7893,-3.7919,-3.8013,-3.7847,-3.7849,-3.7851,0,-3.7749,-3.776,-3.7827,-3.7818,-3.7828,-3.7858,-3.7869,-3.789,-3.7891,-3.7881,-3.789,-3.7861,-3.7898,-3.7846,-3.7896,-3.7857,-3.7868,-3.7864,-3.7867,-3.7868,-3.781,-3.7896,-3.8042,-3.8056,-3.7871,-3.7869,-3.7868,0,-3.7852,-3.7883,-3.7927,-3.7931,-3.7922,-3.7944,-3.7942,-3.794,-3.7951,-3.7962,-3.7969,-3.7985,-3.7994,-3.8007,-3.7983,-3.7948,-3.8037,-3.7983,-3.8029,-3.803,-3.8049,-3.8048,-3.8197,-3.8058,-3.8058,-3.8058,-3.8058,0,-3.7966,-3.8008,-3.7973,-3.8,-3.8047,-3.8015,-3.8062,-3.8055,-3.8054,-3.8079,-3.8041,-3.8066,-3.8034,-3.8056,-3.8038,-3.8082,-3.8086,-3.8079,-3.8074,-3.8082,-3.8083,-3.8088,-3.808,-3.8062,-3.8061,-3.806,-3.8059,0,-3.8088,-3.8066,-3.811,-3.8098,-3.8096,-3.8131,-3.8121,-3.8146,-3.8133,-3.8165,-3.8171,-3.815,-3.8174,-3.8152,-3.8175,-3.8163,-3.8222,-3.8207,-3.8221,-3.8216,-3.8263,-3.8258,-3.842,-3.8439,-3.8289,-3.8291,-3.8292,0,-3.8161,-3.8192,-3.8184,-3.8197,-3.8197,-3.8219,-3.823,-3.8201,-3.8214,-3.8217,-3.8242,-3.8262,-3.8277,-3.8317,-3.8305,-3.8322,-3.8307,-3.8363,-3.831,-3.8317,-3.8307,-3.8305,-3.8308,-3.8373,-3.8375,-3.8376,-3.8378,0,-3.8293,-3.828,-3.8297,-3.831,-3.8324,-3.8333,-3.8339,-3.8352,-3.8322,-3.8339,-3.8362,-3.8373,-3.8396,-3.8417,-3.843,-3.8428,-3.8398,-3.8395,-3.8406,-3.8414,-3.842,-3.8416,-3.8249,-3.8391,-3.8389,-3.8388,-3.8388,-3.8387,-3.8392,-3.8417,-3.8415,-3.8435,-3.8436,-3.8442,-3.8465,-3.8454,-3.8472,-3.8488,-3.847,-3.8498,-3.8499,-3.8513,-3.8516,-3.8538,-3.8515,-3.8532,-3.8536,-3.854,-3.8546,-3.8417,-3.8541,-3.854,-3.854,-3.8539,-3.8539,0,-3.8521,-3.8517,-3.8535,-3.8544,-3.856,-3.853,-3.8535,-3.855,-3.8575,-3.8578,-3.8593,-3.8619,-3.8639,-3.8628,-3.8646,-3.8666,-3.8652,-3.8671,-3.8669,-3.8669,-3.8566,-3.8554,-3.8682,-3.8682,-3.8682,-3.8682,-3.8682,-3.8681,-3.859,-3.8631,-3.8618,-3.866,-3.8656,-3.8682,-3.8688,-3.8694,-3.8696,-3.8727,-3.8742,-3.8735,-3.8733,-3.8749,-3.8766,-3.8763,-3.8771,-3.8794,-3.8786,-3.869,-3.8676,-3.8663,-3.8651,-3.8797,-3.8797,-3.8886,-3.8887,-3.8888]}]]